Weather History for MROC - October, 2014

Change the Weather History Date:

Saturday, October 11, 2014

  Actual Average Record
Temperature  
Mean Temperature 72 °F -  
Max Temperature 81 °F 78 °F 86 °F (2002)
Min Temperature 63 °F 64 °F 62 °F (2008)
Cooling Degree Days 7    
Growing Degree Days 22 (Base 50)    
Moisture  
Dew Point 66 °F    
Average Humidity 86    
Maximum Humidity 100    
Minimum Humidity 59    
Precipitation  
Precipitation 0.24 in 0.34 in - ()
Sea Level Pressure  
Sea Level Pressure 29.96 in    
Wind  
Wind Speed 5 mph ()    
Max Wind Speed 12 mph    
Max Gust Speed -    
Visibility 7.2 miles    
Events Fog , Rain    
Averages and records for this station are not official NWS values.
T = Trace of Precipitation, MM = Missing Value Source: Averaged Metar Reports

Daily Weather History Graph

Daily Weather History Graph

Search for Another Location

Airport or City:

Trip Planner

Search our weather history database for the weather conditions in past years. The results will help you decide how hot, cold, wet, or windy it might be!

Date:

Astronomy

Oct. 11, 2014 Rise Set
Actual Time 5:25 AM CST 5:21 PM CST
Civil Twilight 5:04 AM CST 5:42 PM CST
Nautical Twilight 4:39 AM CST 6:07 PM CST
Astronomical Twilight 4:15 AM CST 6:31 PM CST
Moon 8:20 PM CST (10/11) 8:18 AM CST (10/11)
Length of Visible Light 12h 38m
Length of Day
11h 56m
Waning Gibbous, 87% of the Moon is Illuminated
Oct 11
Waning Gibbous
Oct 15
Last Quarter
Oct 23
New
Oct 30
First Quarter
Nov 6
Full

Hourly Weather History & Observations

Time (CST) Temp. Dew Point Humidity Pressure Visibility Wind Dir Wind Speed Gust Speed Precip Events Conditions
12:00 AM 68 °F 67 °F 94% 29.85 in 12 mi ENE 2.3 mph - - Fog Light Fog
12:00 AM 68.0 °F 66.2 °F 94% 29.99 in 6.2 mi ENE 2.3 mph - N/A   Scattered Clouds
1:00 AM 66.2 °F 64.4 °F 94% 29.95 in - NE 5.8 mph - N/A   Clear
2:00 AM 64.4 °F 64.4 °F 100% 29.93 in - East 4.6 mph - N/A   Clear
3:00 AM 65 °F 62 °F 89% 29.82 in 12 mi ESE 3.5 mph - -   Clear
3:00 AM 64.4 °F 62.6 °F 94% 29.95 in - ESE 3.5 mph - N/A   Clear
4:00 AM 64.4 °F 62.6 °F 94% 29.96 in - NNE 3.5 mph - N/A   Clear
5:00 AM 64.4 °F 62.6 °F 94% 29.98 in - East 3.5 mph - N/A   Clear
6:00 AM 65 °F 62 °F 89% 29.90 in 12 mi East 4.6 mph - -   Clear
6:00 AM 64.4 °F 62.6 °F 94% 30.00 in - East 4.6 mph - N/A   Clear
7:00 AM 69.8 °F 64.4 °F 83% 30.03 in - East 5.8 mph - N/A   Clear
8:00 AM 75.2 °F 64.4 °F 69% 30.01 in - ESE 4.6 mph - N/A   Clear
9:00 AM 78 °F 66 °F 59% 29.89 in 12 mi WSW 10.4 mph - -   Scattered Clouds
9:00 AM 78.8 °F 66.2 °F 65% 30.03 in 6.2 mi WSW 10.4 mph - N/A   Mostly Cloudy
10:00 AM 71.6 °F 68.0 °F 88% 30.06 in 6.2 mi WSW 11.5 mph - N/A   Mostly Cloudy
11:00 AM 77.0 °F 66.2 °F 69% 30.04 in 6.2 mi West 11.5 mph - N/A   Mostly Cloudy
12:00 PM - - % 29.86 in 12 mi WSW 8.1 mph - -   Partly Cloudy
12:00 PM 78.8 °F 66.2 °F 65% 30.01 in 6.2 mi WSW 8.1 mph - N/A   Mostly Cloudy
1:00 PM 78.8 °F 68.0 °F 69% 29.97 in 6.2 mi West 9.2 mph - N/A   Mostly Cloudy
2:00 PM 78.8 °F 66.2 °F 65% 29.94 in 6.2 mi WSW 9.2 mph - N/A   Mostly Cloudy
3:00 PM 76 °F 69 °F 74% 29.82 in 12 mi WSW 9.2 mph - - Rain Light Rain
3:00 PM 75.2 °F 69.8 °F 83% 29.94 in 6.2 mi WSW 9.2 mph - N/A Rain Light Rain
4:00 PM 73.4 °F 68.0 °F 83% 29.95 in 6.2 mi WSW 9.2 mph - N/A   Mostly Cloudy
5:00 PM 73.4 °F 68.0 °F 83% 29.96 in 6.2 mi West 3.5 mph - N/A   Mostly Cloudy
6:00 PM 70 °F 68 °F 92% 29.87 in 6 mi SSW 5.8 mph - -   Mist
6:00 PM 69.8 °F 68.0 °F 94% - 6.2 mi SSW 5.8 mph - N/A   Mostly Cloudy
7:00 PM 69.8 °F 68.0 °F 94% 30.01 in 6.2 mi SW 4.6 mph - N/A   Mostly Cloudy
8:00 PM 69.8 °F 68.0 °F 94% 30.02 in 6.2 mi Calm Calm - N/A   Mostly Cloudy
9:00 PM 69 °F 68 °F 94% 29.87 in 12 mi Calm Calm - -   Scattered Clouds
9:00 PM 69.8 °F 68.0 °F 94% 30.02 in 6.2 mi Calm Calm - N/A   Scattered Clouds
10:00 PM 69.8 °F 68.0 °F 94% 30.02 in 4.3 mi West 3.5 mph - N/A Fog Patches of Fog
10:20 PM 68.0 °F 68.0 °F 100% 30.01 in 1.9 mi South 4.6 mph - N/A   Mostly Cloudy
10:25 PM 68.0 °F 68.0 °F 100% 30.01 in 0.9 mi South 3.5 mph - N/A   Mostly Cloudy
11:00 PM 68.0 °F 68.0 °F 100% 30.01 in 2.5 mi WSW 2.3 mph - N/A   Mostly Cloudy